Location: Alsip
(41.6689°N, 87.7387°W)
Time: 13:54:40
(UTC+00:00)

Cosmos 2297 - Pass Details

Date: 14 July 2020
Orbit: 835 x 859 km, 71.0° (Epoch: 04 August)

Event Time Altitude Azimuth Distance (km) Brightness Sun altitude
Rises 03:49:04 0° 336° (NNW) 3,438 8.4 -20.1°
Reaches altitude 10° 03:51:33 10° 336° (NNW) 2,495 7.3 -20.4°
Maximum altitude 03:57:18 88° 67° (ENE) 858 3.6 -20.9°
Enters shadow 03:59:16 43° 155° (SSE) 1,175 3.9 -21.1°
